MDT,Max TemperatureF,Mean TemperatureF,Min TemperatureF,Max Dew PointF,MeanDew PointF,Min DewpointF,Max Humidity, Mean Humidity, Min Humidity, Max Sea Level PressureIn, Mean Sea Level PressureIn, Min Sea Level PressureIn, Max VisibilityMiles, Mean VisibilityMiles, Min VisibilityMiles, Max Wind SpeedMPH, Mean Wind SpeedMPH, Max Gust SpeedMPH,PrecipitationIn, CloudCover, Events, WindDirDegrees
2013-9-1,87,72,57,59,52,47,77,52,27,30.19,30.00,29.88,10,10,2,28,8,33,0.17,1,Rain-Thunderstorm,144
2013-9-2,89,74,58,56,51,45,84,53,22,30.08,29.96,29.87,10,10,10,16,5,21,0.00,0,,123
2013-9-3,91,75,59,54,50,43,69,45,21,30.04,29.98,29.92,10,10,10,17,6,22,T,0,,167
2013-9-4,91,77,63,54,52,46,67,46,24,30.24,30.05,29.96,10,10,10,26,7,32,0.00,0,Thunderstorm,167
2013-9-5,92,79,65,59,51,45,63,42,20,30.29,30.05,29.91,10,10,8,20,6,26,0.01,3,Rain-Thunderstorm,137
2013-9-6,92,75,57,54,46,36,78,46,14,30.34,30.01,29.87,10,10,4,30,7,36,0.00,1,,154
2013-9-7,91,75,58,52,45,38,64,40,16,30.14,29.95,29.83,10,10,10,24,7,31,T,1,Rain-Thunderstorm,170
2013-9-8,85,74,63,61,53,47,84,56,28,30.13,29.92,29.81,10,10,10,16,6,22,0.01,3,Rain-Thunderstorm,123
2013-9-9,73,66,59,58,56,54,90,74,57,30.09,29.92,29.86,10,9,4,25,5,30,0.25,7,Rain-Thunderstorm,139
2013-9-10,66,62,57,61,59,56,100,89,78,30.18,30.06,29.91,10,8,0,17,2,28,0.13,8,Fog-Rain,349
2013-9-11,71,65,59,61,58,54,97,75,53,30.26,30.10,29.98,10,9,2,16,4,18,0.12,6,Rain,167
2013-9-12,78,65,52,58,53,47,93,65,36,30.09,30.02,29.94,10,10,7,24,6,31,0.12,3,Rain,151
2013-9-13,77,65,53,58,52,43,100,67,33,30.01,29.90,29.77,10,10,9,23,4,28,0.03,2,Rain,148
2013-9-14,69,63,56,56,53,49,93,74,55,30.13,29.94,29.81,10,8,2,17,6,22,0.37,6,Rain,61
2013-9-15,74,64,54,54,52,48,100,72,44,30.05,29.99,29.93,10,10,10,15,3,17,0.00,4,,152
2013-9-16,79,65,50,53,50,47,89,61,32,30.16,30.03,29.96,10,10,10,24,6,28,0.00,1,,138
2013-9-17,82,67,51,53,48,44,83,56,28,30.01,29.88,29.74,10,10,10,17,7,23,0.00,1,Thunderstorm,141
2013-9-18,81,69,57,54,48,42,72,52,31,30.03,29.84,29.73,10,10,8,26,10,33,0.01,3,Rain-Thunderstorm,153
2013-9-19,74,62,50,50,43,33,89,57,25,30.02,29.95,29.81,10,10,10,13,6,17,0.00,0,,20
2013-9-20,79,61,43,41,37,28,82,49,16,30.10,30.00,29.91,10,10,10,15,6,17,0.00,0,,127
2013-9-21,82,67,52,48,42,35,66,44,21,29.96,29.85,29.73,10,10,8,24,6,29,T,3,Rain,204
2013-9-22,68,58,48,54,50,44,89,69,49,29.96,29.77,29.55,10,8,1,28,10,35,0.89,6,Rain-Thunderstorm,101
2013-9-23,65,55,45,45,42,34,100,67,34,30.12,29.96,29.75,10,10,10,14,5,17,0.01,3,Rain,111
2013-9-24,74,56,38,43,37,29,85,52,19,30.19,30.04,29.85,10,10,10,15,6,17,0.00,0,,126
2013-9-25,80,65,50,36,29,23,50,31,12,29.83,29.60,29.41,10,10,6,37,13,47,0.00,0,,154
2013-9-26,79,64,49,37,25,18,44,27,10,29.72,29.54,29.44,10,10,10,25,12,36,0.00,0,,176
2013-9-27,63,50,37,48,36,26,92,62,32,30.13,29.84,29.55,10,10,7,25,9,31,0.13,6,Rain-Thunderstorm,233
2013-9-28,61,47,32,34,30,16,92,55,17,30.30,30.23,30.16,10,10,10,10,5,13,0.00,0,,143
2013-9-29,71,52,33,37,31,24,89,54,18,30.26,30.13,30.01,10,10,10,12,5,14,0.00,0,,144
2013-9-30,78,59,40,38,31,24,65,40,15,30.03,29.94,29.83,10,10,10,14,5,15,0.00,0,,141